Flag for El Salvador Weather past 2 weeks in Santa Ana, El Salvador

Now
73 °F

Clear.


Feels Like: 68 °F
Forecast: 61 / 80 °F
Wind: 2 mph from North

Location: El Salvador Intl. Airport / Comalapa

Current Time: Oct 23, 2014 at 5:15:46 AM

Latest Report: Oct 23, 2014 at 3:50 AM


Visibility: 10 mi

Pressure: 29.83 "Hg

Humidity: 100%

Dew point: 73 °F

Location of Santa AnaLocation

Historic Weather in Santa Ana — Graph

°F

Santa Ana temperature yesterday

Maximum temperature yesterday: 84 °F (at 12:50 PM)
Minimum temperature yesterday: 73 °F (at 12:50 AM)
Average temperature yesterday: 78 °F

Past Weeks' High & Low Weather Summary

 TemperatureHumidityPressure
High88 °F (Oct 8, 11:50 AM)100% (Oct 8, 3:50 AM)29.98 "Hg (Oct 8, 3:50 AM)
Low72 °F (Oct 21, 5:50 AM)22% (Oct 12, 2:00 PM)29.74 "Hg (Oct 8, 2:50 PM)
Average79 °F93%29.84 "Hg
* Reported Oct 8 3:50 AM — Oct 23 3:50 AM, Santa Ana, Weather by CustomWeather, © 2014

Note: Actual official high and low records may vary slightly from our data, if they occured in-between our weather recording intervals... More about our weather records

Advertising

Santa Ana weather history for previous 24 hours

 ConditionsComfort  
Time TempWeatherWind HumidityBarometerVisibility
3:50 AM
Oct 23
73 °FClear.2 mph100%29.83 "Hg10 mi
2:50 AM73 °FClear.2 mph100%29.83 "Hg10 mi
1:50 AM73 °FClear.3 mph100%29.83 "Hg10 mi
12:50 AM73 °FPassing clouds.3 mph100%29.86 "HgN/A
11:50 PM
Oct 22
73 °FClear.2 mph100%29.86 "Hg10 mi
10:50 PM73 °FClear.1 mph100%29.86 "Hg10 mi
9:50 PM75 °FClear.5 mph100%29.86 "Hg10 mi
8:50 PM75 °FClear.3 mph100%29.86 "Hg10 mi
7:50 PM75 °FPassing clouds.2 mph100%29.86 "HgN/A
6:50 PM77 °FPassing clouds.2 mph100%29.83 "HgN/A
5:50 PM77 °FPassing clouds.1 mph100%29.80 "HgN/A
4:50 PM79 °FPassing clouds.5 mph100%29.80 "HgN/A
3:50 PM81 °FScattered clouds.7 mph94%29.77 "HgN/A
2:50 PM82 °FScattered clouds.7 mph94%29.80 "HgN/A
1:50 PM81 °FMixture of precip. Partly sunny.9 mph89%29.80 "HgN/A
12:50 PM84 °FScattered clouds.6 mph79%29.83 "HgN/A
11:00 AM82 °FRain showers. Scattered clouds.3 mph89%29.89 "HgN/A
10:50 AM82 °FScattered clouds.2 mph84%29.89 "HgN/A
9:50 AM81 °FScattered showers. Cloudy.3 mph94%29.92 "HgN/A
8:50 AM81 °FPartly sunny.2 mph89%29.89 "HgN/A
7:50 AM82 °FWarm.2 mph89%29.86 "HgN/A
6:50 AM77 °FPassing clouds.2 mph100%29.86 "HgN/A
5:50 AM75 °FScattered clouds.2 mph100%29.83 "HgN/A
Weather by CustomWeather, © 2014

See weather overviewHow to use our weather pages